Other Public Products
Issued by NWS Grand Forks, ND

Home | Current Version | Previous Version | Graphics & Text | Print | Product List | Glossary On
Versions: 1 2 3 4 5 6 7 8 9 10 11 12 13 14 15 16 17 18 19 20 21 22 23 24 25 26 27 28 29 30 31 32 33 34 35 36 37 38 39 40 41 42 43 44 45 46 47 48 49 50
000
FPUS83 KFGF 261610
OPUFGF
PRAIRIE TO PINES WEATHER ROUNDUP
NATIONAL WEATHER SERVICE EASTERN NORTH DAKOTA/GRAND FORKS ND
1100 AM CDT THU MAR 26 2015

 **SATELLITE DATA USED TO AUGMENT SKY COVER AT AUTOMATED STATIONS**
 *****  WEATHER ACROSS EASTERN NORTH DAKOTA  *****

CITY           SKY/WX    TMP DP  RH WIND       PRES   REMARKS
GRAND FORKS    MOSUNNY   28  15  58 N15       30.28R WCI  16
GRAND FORKS AF MOSUNNY   28  15  57 N14       30.28S WCI  17
GRAND CITY NWS   N/A     28 N/A N/A N7          N/A  WCI  21
BUXTON         NOT AVBL
DEVILS LAKE    SUNNY     27  16  63 NE10      30.26R WCI  17
FARGO          CLOUDY    28  17  63 N17       30.25R WCI  16
WAHPETON ARPT  CLOUDY    28  16  59 N17       30.24R WCI  16
$$

 *****  WEATHER ACROSS CENTRAL AND WESTERN NORTH DAKOTA  *****

CITY           SKY/WX    TMP DP  RH WIND       PRES   REMARKS
JAMESTOWN      CLOUDY    29  15  56 N14       30.24R WCI  18
BISMARCK       CLOUDY    33  24  69 E10       30.22R WCI  25
MINOT          MOSUNNY   33  22  63 SE6       30.23R
MINOT AFB      CLOUDY    31  28  89 SE7       30.23R WCI  24
GARRISON         N/A     34  23  64 E10       30.20R
WILLISTON      PTSUNNY   35  28  75 SE3       30.19R
DICKINSON      CLOUDY    30  27  88 E7        30.14R WCI  23
HETTINGER      LGT SNOW  32  29  88 CALM      30.13R FOG
$$

 *****  OTHER OBSERVATIONS NORTHEAST NORTH DAKOTA  *****

CITY           SKY/WX    TMP DP  RH WIND       PRES   REMARKS
WALHALLA         N/A     27  19  74 NW6       30.31R WCI  20
LANGDON        NOT AVBL
CAVALIER       FAIR      25  18  74 NW8       30.31R WCI  16
GRAFTON        NOT AVBL
CANDO          NOT AVBL
FORT TOTTEN      N/A     29  18  64 N3        29.95
ROLLA          PTSUNNY   27  16  63 NE6       30.26R WCI  20
RUGBY          CLOUDY    27  19  74 SE8       30.26R WCI  18
 ***** THE ABOVE OBSERVATIONS ARE NON NWS ARE NOT QUALITY
        CONTROLLED AND MAY MIS-REPORT RAIN FOR SNOW...
$$

 *****  OTHER OBSERVATIONS SOUTHEAST NORTH DAKOTA *****

CITY           SKY/WX    TMP DP  RH WIND       PRES   REMARKS
COOPERSTOWN    NOT AVBL
VALLEY CITY    MIX PCPN  27  16  63 N15       30.24R WCI  15
OAKES            N/A     28  25  86 NE13      30.24R WCI  18
GWINNER        PTSUNNY   30  21  69 N16G23      N/A  WCI  19
SHEYENNE NWR     N/A     28  16  59 N12       29.95  WCI  18
BUFFALO        NOT AVBL
WYNDMERE       NOT AVBL
 ***** THE ABOVE OBSERVATIONS ARE NON NWS ARE NOT QUALITY
       CONTROLLED AND MAY MIS-REPORT RAIN FOR SNOW...
$$

  *****  WEATHER ACROSS NORTHERN MINNESOTA  *****

CITY           SKY/WX    TMP DP  RH WIND       PRES   REMARKS
FLAG ISLAND    SUNNY     16   1  53 N14G20    30.24R WCI   1
WARROAD        SUNNY     21   3  45 N13G20    30.24S WCI   9
ROSEAU         SUNNY     21  10  63 N12       30.25S WCI   9
HALLOCK        MOSUNNY   25  18  74 N13       30.30R WCI  13
THF RVR FALLS  SUNNY     25  14  63 N13       30.25R WCI  13
HALSTAD        NOT AVBL
FOSSTON        MOSUNNY   27  12  54 N17       30.21R WCI  14
BAUDETTE       SUNNY     20  10  65 N12       30.20R WCI   8
WASKISH        MOSUNNY   25  14  63 NW7       30.19R WCI  17
CROOKSTON      MOSUNNY   27  16  63 NE12G18   30.27S WCI  16
$$
  *****  WEATHER ACROSS CENTRAL AND WEST MINNESOTA  *****

CITY           SKY/WX    TMP DP  RH WIND       PRES   REMARKS
BEMIDJI        PTSUNNY   25  10  53 N13G21    30.17R WCI  14
PARK RAPIDS    CLOUDY    24  13  62 N14       30.15R WCI  12
WADENA         FLURRIES  25  18  74 NW10      30.15S WCI  15
DETROIT LAKES  MIX PCPN  27  19  74 N8        30.20R WCI  18
MOORHEAD       FLURRIES  27  19  74 N20       30.25S WCI  13
FERGUS FALLS   CLOUDY    27  16  63 NW14G24   30.23S WCI  15
ELBOW LAKE     PTSUNNY   27  17  67 N16       30.19S WCI  14
MORRIS MN      MOSUNNY   28  19  69 N16G22    30.19R WCI  17
STAPLES        CLOUDY    25  14  63 N15       30.15R WCI  12
WHEATON        MOSUNNY   27  18  69 N16G23    30.24S WCI  14
$$
  *****  WEATHER ELSEWHERE ACROSS MINNESOTA  *****

CITY           SKY/WX    TMP DP  RH WIND       PRES   REMARKS
DULUTH         FLURRIES  23  12  62 N16G22    30.07S WCI  10
INTRNTL FALLS  PTSUNNY   20   7  57 NE9       30.18S WCI   9
ELY            SUNNY     18   1  49 N7G18     30.11R WCI   8
CLOQUET        MOSUNNY   25  10  54 NW16G24   30.09S WCI  12
BRAINERD       CLOUDY    25  14  63 N15       30.15R WCI  13
HIBBING        MOSUNNY   21   7  54 N15       30.13R WCI   8
ALEXANDRIA     CLOUDY    26  16  65 NW13      30.16S WCI  15
SAINT CLOUD    CLOUDY    29  18  63 NW15      30.13R WCI  18
MINNEAPOLIS    PTSUNNY   33  17  51 N15       30.12S WCI  23
$$

  *****  WEATHER ACROSS SOUTH DAKOTA  *****

CITY           SKY/WX    TMP DP  RH WIND       PRES   REMARKS
SIOUX FALLS    CLOUDY    37  24  59 NW9       30.18F
BROOKINGS      NOT AVBL
WATERTOWN      CLOUDY    31  21  66 N9        30.17S WCI  23
HURON          CLOUDY    32  23  69 N6        30.20S
SISSETON         N/A     28  22  78 NE17      30.22R WCI  16
ABERDEEN       CLOUDY    32  24  72 NE10      30.22R WCI  24
MITCHELL       CLOUDY    33  23  66 VRB3      30.21S
PIERRE         HVY SNOW  28  26  92 E10       30.15R VSB 1/4 WCI  19
MOBRIDGE       LGT SNOW  32  26  78 CALM      30.16S
RAPID CITY     CLOUDY    50  27  40 NW26G38   30.06R
$$

  *****  SOME WEATHER IN NEARBY STATES *****

CITY           SKY/WX    TMP DP  RH WIND       PRES   REMARKS
GLASGOW MT     CLOUDY    36  30  79 SE9       30.13R
GREAT FALLS MT CLOUDY    52  34  50 SW20G26   30.13R
CHEYENNE WY    CLOUDY    43  17  35 NW14G24   30.19R
SCOTTSBLUFF NE CLOUDY    42  29  59 W15G22    30.16F
OMAHA NE       MOSUNNY   41  24  51 W9        30.23F
DES MOINES IA  MOSUNNY   42  22  44 N20G30    30.17F
DAVENPORT IA   SUNNY     38  24  57 N17       30.07S
CHICAGO IL     PTSUNNY   39  26  59 W12       29.98S
EAU CLAIRE WI  CLOUDY    32  16  51 N13G20    30.05R WCI  22
LA CROSSE WI   CLOUDY    34  20  56 N14       30.07R WCI  25
$$

  *****  SOME NATIONAL WEATHER *****

CITY           SKY/WX    TMP DP  RH WIND       PRES   REMARKS
LA GUARDIA NY  LGT RAIN  48  45  89 S3        29.87F FOG
RALEIGH NC     CLOUDY    68  59  73 SW14      29.93F
ATLANTA GA     PTSUNNY   69  55  60 W10       29.95F
NEW ORLEANS LA CLOUDY    70  66  87 S12       29.91F
OKLAHOMA CITY  SUNNY     49  32  52 N18       30.23S
ALBUQUERQUE NM MOSUNNY   45  23  42 CALM      30.36R
SALT LAKE CITY MOSUNNY   45  24  43 S6        30.42R
LOS ANGELES CA SUNNY     74  36  25 SE3       30.08S
BOISE ID       SUNNY     43  37  79 CALM      30.42R
SEATTLE WA     PTSUNNY   57  51  80 CALM      30.28F
$$

*** WEATHER ACROSS MANITOBA...SASKATCHEWAN AND ONTARIO ***
                ***ONTARIO***

CITY           SKY/WX    TMP DP  RH WIND       PRES   REMARKS
GERALDTON      MOSUNNY   10  -2  56 N10G17    30.03R WCI  -3
THUNDER BAY    MOSUNNY   19   7  58 N12G21    30.10R WCI   7
SIOUX LOOKOUT    N/A      9  -2  61 N10       30.18S WCI  -6
TORONTO        LGT RAIN  37  34  87 S8        29.82S FOG
BIG TROUT LK   SUNNY      5  -6  61 N10G17    30.19R WCI -10
PICKLE LAKE    MOSUNNY    7  -6  56 VRB9      30.12F WCI  -7
DRYDEN         SUNNY     12   0  57 N10       30.19R WCI  -1
KENORA         NOT AVBL
$$
                *** MANITOBA***

CITY           SKY/WX    TMP DP  RH WIND       PRES   REMARKS
BRANDON        PTSUNNY   25  18  74 CALM      30.30R
DAUPHIN        MOSUNNY   21  19  93 NE6       30.32R WCI  14
ISLAND LAKE    SUNNY      5  -6  61 W6        30.32R WCI  -6
PILOT MOUND      N/A     23  14  68 NE1         N/A
THE PAS        MOSUNNY   18  10  73 SE6       30.34F WCI   9
THOMPSON       SUNNY     10  -8  44 SW3       30.36F
WINNIPEG       MOSUNNY   23  14  68 N12       30.33R WCI  12
LYNN LAKE      SUNNY     12  -6  44 S5        30.31F WCI   4
GILLAM         SUNNY      3  -8  60 W7        30.35R WCI  -9
$$
                ***SASKATCHEWAN***

CITY           SKY/WX    TMP DP  RH WIND       PRES   REMARKS
ESTEVAN        MOSUNNY   32  21  64 SE10      30.22R WCI  24
KINDERSLEY     CLOUDY    36  28  75 SE6       30.07F
LLOYDMINSTER   CLOUDY    27  25  93 E7        30.05S FOG     WCI  19
PRINCE ALBERT  CLOUDY    25  19  80 SE8       30.22S WCI  16
REGINA         PTSUNNY   30  25  80 SE15      30.20R WCI  19
YORKTON        SUNNY     21  19  93 CALM      30.26S


USA.gov is the U.S. government's official web portal to all federal, state and local government web resources and services.